Wind_Speed
38 38 41 41 39 39 41 42 46 47 48 47 48 49 49 49 50 51 52 54 55 55 56 57 58 58 60 61 62 63 64 65 65 66 67 68 69 69 69 68 69 69 69 67
43 41 44 44 40 40 42 44 45 47 48 48 51 52 52 53 54 54 55 56 56 57 58 58 59 60 61 62 64 65 65 66 67 69 70 70 69 69 68 68 67 66 65 64
48 46 48 46 42 43 44 44 45 48 50 52 53 54 54 55 56 57 57 58 58 59 60 60 61 62 63 65 66 67 67 68 68 69 69 68 67 66 65 64 63 62 63 62
52 52 53 49 46 46 48 48 49 51 53 55 56 56 56 57 58 58 59 59 60 61 62 62 63 64 65 66 66 67 67 67 67 67 66 64 62 62 62 61 60 59 59 59
54 56 58 52 50 51 53 52 52 55 57 58 59 58 57 58 59 60 61 62 62 63 63 63 64 65 66 66 66 66 65 65 65 64 62 61 60 61 59 58 57 56 56 56
55 57 59 55 54 55 56 57 56 58 60 61 62 63 61 60 61 62 63 63 64 64 64 64 64 65 64 64 64 63 63 62 60 59 58 58 58 57 56 55 54 54 54 55
55 57 57 55 56 57 57 58 59 61 62 64 65 66 66 65 65 64 65 65 64 64 63 63 63 62 61 61 60 60 59 58 57 57 56 56 54 53 53 53 52 52 52 53
53 55 55 54 55 56 58 60 62 63 64 65 66 66 66 65 65 64 63 62 62 62 61 60 60 60 59 58 58 57 57 56 56 55 54 53 52 52 51 50 50 50 50 51
52 52 52 53 55 56 59 61 62 63 63 64 64 63 63 62 61 60 60 60 60 59 57 57 58 58 57 57 56 55 54 54 53 53 53 52 52 51 50 49 49 49 49 49
50 50 50 51 53 55 57 59 60 60 61 60 60 59 58 57 57 57 56 56 55 54 54 55 56 57 57 56 54 54 54 54 54 54 54 53 53 52 50 49 48 47 47 48
48 48 49 49 51 53 54 55 56 57 57 56 55 54 53 52 52 51 51 52 53 54 54 54 55 55 55 55 55 56 56 56 56 56 56 55 53 52 50 48 47 46 46 46
48 48 51 51 52 53 53 52 51 51 50 49 50 50 50 50 50 51 52 53 53 54 54 54 54 55 56 56 57 57 57 57 57 56 55 54 53 51 49 47 45 44 44 44
49 50 51 51 52 52 52 51 50 49 48 49 49 50 51 51 51 52 52 53 54 54 55 55 55 56 56 57 57 57 57 57 56 56 55 54 53 52 49 46 44 43 42 42
49 50 50 50 51 51 51 50 50 50 50 51 51 52 52 52 52 52 53 53 54 54 55 55 55 56 57 57 57 58 58 58 58 57 56 55 54 52 49 46 43 41 41 41
51 51 51 51 51 51 51 51 50 50 51 51 51 51 51 51 52 52 53 54 54 54 55 55 56 57 58 58 59 60 60 60 59 59 57 55 53 50 47 44 42 40 39 39
51 51 51 50 51 51 51 51 50 50 50 50 50 50 51 51 52 52 53 54 54 54 55 56 57 58 59 60 60 60 60 60 60 58 55 54 51 48 45 42 39 38 36 36
50 49 49 49 49 50 50 50 50 50 49 49 49 50 50 51 51 51 52 53 54 55 56 57 58 59 60 60 60 61 62 61 60 57 54 51 48 45 42 39 37 35 34 34
49 49 49 48 48 48 48 48 48 48 49 49 49 50 51 51 51 51 52 52 53 54 56 57 58 59 59 59 60 61 60 58 56 52 49 46 43 40 38 36 35 33 32 32
49 48 48 47 48 48 48 48 48 48 48 49 49 49 50 50 51 51 51 52 53 54 55 56 57 58 58 59 60 60 58 55 52 48 46 42 39 36 35 33 32 31 29 30
49 48 47 47 47 47 47 47 48 48 48 49 49 49 50 50 50 50 50 51 53 55 56 57 57 58 59 59 59 58 55 52 48 45 41 37 35 32 31 30 29 28 27 27
48 48 48 47 47 47 47 47 48 48 47 48 49 49 49 49 49 50 50 51 52 55 56 56 56 57 58 57 55 54 51 48 44 41 37 34 31 29 27 26 25 24 24 24
48 48 47 47 47 46 46 47 47 47 47 48 48 48 49 48 49 49 50 52 53 54 54 54 54 55 54 53 53 51 47 44 40 36 33 29 26 24 23 22 22 22 21 21
47 46 45 45 45 44 44 46 46 46 46 47 47 48 48 48 49 49 49 50 52 53 52 51 51 51 51 50 49 46 43 39 35 31 28 24 22 20 19 19 19 18 18 19
44 44 43 44 44 44 44 44 45 45 45 45 46 47 47 47 47 48 49 50 50 50 49 48 48 49 48 46 44 41 38 34 30 26 24 22 19 16 16 16 15 15 15 16
42 42 42 42 42 42 43 42 42 42 43 44 44 45 46 47 47 47 48 48 47 46 46 45 45 45 43 41 39 37 35 31 27 24 22 19 16 13 12 12 12 13 13 14
41 41 41 41 41 41 41 41 41 42 42 42 42 43 43 45 45 45 45 44 43 43 44 43 42 41 40 38 37 35 32 29 25 22 19 16 11 9 9 9 10 10 11 11
41 40 40 40 40 41 41 41 42 42 42 41 40 41 42 42 42 42 41 40 40 41 41 40 39 39 38 36 34 32 30 27 23 20 17 12 8 7 8 8 9 9 9 10
Wind_Direction
291 292 292 292 296 298 297 298 298 299 300 302 299 298 298 297 296 296 296 296 296 297 297 298 298 299 299 300 301 302 303 304 305 305 307 308 309 311 312 314 315 315 317 319
290 290 290 292 296 297 297 297 297 296 297 297 296 297 298 298 298 298 298 298 298 299 299 299 299 299 299 299 300 301 303 303 304 305 306 308 309 310 311 313 313 315 317 318
290 291 290 292 296 296 295 295 295 295 295 294 294 295 296 297 298 298 299 299 300 300 300 300 300 300 300 301 302 303 303 304 304 305 307 307 308 310 311 312 313 315 316 318
292 292 291 296 297 297 295 294 295 294 293 293 293 295 297 298 299 300 300 300 300 300 300 300 299 299 300 301 302 303 304 304 305 306 307 308 309 311 312 313 314 315 317 318
291 292 294 297 298 296 295 295 296 295 294 294 295 296 297 299 299 300 300 300 300 300 300 300 300 301 302 303 304 305 305 305 306 307 308 309 310 311 312 313 314 315 317 318
290 292 294 298 298 297 296 297 297 296 296 297 297 297 298 298 298 298 299 299 300 300 301 302 302 302 302 303 303 304 306 307 308 309 309 310 311 312 313 313 314 315 316 317
292 293 294 297 297 297 297 297 295 295 295 296 296 298 300 300 300 301 301 301 302 302 303 303 303 303 304 305 305 306 307 308 309 309 310 310 311 312 313 314 315 315 315 316
294 294 297 297 296 295 294 293 293 293 294 295 297 298 299 300 301 301 302 302 302 303 303 304 304 305 305 306 306 307 308 308 309 310 311 311 311 311 312 314 315 315 315 315
295 296 297 296 295 294 293 294 294 295 296 296 297 298 300 300 301 302 302 303 304 304 304 304 304 304 305 306 307 308 308 309 310 310 311 311 311 311 312 313 314 314 315 315
296 298 297 296 295 294 294 295 295 296 297 298 299 300 302 303 303 304 304 304 305 305 305 305 304 305 306 306 307 308 308 309 309 309 310 310 311 311 311 311 312 314 314 315
297 299 297 297 297 296 296 297 297 298 298 299 300 302 303 305 305 306 306 306 306 307 307 306 306 307 306 306 307 308 308 308 309 309 308 308 309 310 310 309 310 312 313 314
298 298 298 300 300 300 300 300 300 300 300 300 302 303 304 306 306 307 307 307 307 308 307 307 307 307 307 307 308 308 308 308 308 307 307 307 307 307 307 308 308 309 311 312
297 298 299 301 301 301 301 302 302 301 301 302 304 305 306 307 308 308 308 309 309 309 308 307 307 307 307 308 307 307 308 307 307 307 306 305 305 305 304 304 305 307 309 310
295 297 299 300 300 300 300 301 301 302 302 303 305 306 307 309 310 310 310 310 310 310 309 308 308 308 308 308 307 307 307 307 306 305 304 304 303 302 300 301 302 303 305 307
295 297 298 299 299 299 300 300 300 301 302 304 305 307 308 309 310 310 310 310 310 309 309 308 308 308 308 308 308 307 307 306 306 304 303 302 301 299 297 297 297 299 301 304
294 296 297 297 297 298 299 299 300 301 303 304 306 307 308 309 310 310 310 310 309 309 308 309 309 309 308 309 309 308 308 308 307 305 303 301 299 296 294 293 293 296 297 300
292 293 294 295 296 297 298 299 300 302 304 305 306 307 308 309 309 310 310 310 310 310 310 310 311 311 311 311 311 310 309 308 306 303 301 300 298 294 290 289 290 292 293 296
290 291 292 293 294 296 297 298 300 302 304 305 307 308 309 309 309 310 310 310 310 311 312 313 313 314 314 313 313 313 312 310 307 304 301 299 296 292 287 286 286 288 290 293
288 289 291 292 293 294 295 297 300 302 304 306 308 308 309 310 311 311 312 312 312 313 313 314 314 315 315 315 315 315 313 311 308 305 302 298 295 291 287 284 283 283 285 289
287 288 289 290 291 292 294 297 300 303 305 307 308 309 310 311 312 312 313 314 314 314 315 314 315 315 316 317 317 316 315 313 310 307 303 298 294 290 285 283 281 279 281 285
286 287 288 288 289 291 295 297 300 302 304 306 308 310 310 311 312 313 314 314 315 315 316 316 316 317 317 318 318 318 317 316 313 310 305 299 294 289 283 281 278 276 278 282
286 287 288 288 290 292 295 298 300 303 305 306 308 309 310 311 312 313 314 315 316 317 318 318 318 319 320 320 320 320 319 318 316 314 311 304 296 288 284 280 275 274 276 281
286 287 288 289 291 294 297 299 302 304 305 306 307 308 310 312 313 314 315 315 316 318 319 320 321 322 323 323 323 323 321 320 319 317 315 309 299 290 285 280 275 272 277 281
286 287 289 291 293 295 297 300 302 304 305 306 307 309 310 312 313 315 316 316 317 319 321 322 323 324 325 326 327 327 326 325 322 319 317 313 305 294 287 280 272 274 280 283
286 288 289 292 294 296 298 301 303 304 305 307 308 309 310 312 314 315 316 317 318 320 322 323 324 326 327 329 329 330 329 328 325 321 319 315 308 297 286 279 277 281 284 288
288 289 290 293 296 298 300 302 303 304 305 307 307 308 309 311 314 316 317 318 319 321 323 324 325 326 328 329 330 331 331 329 326 324 323 319 310 299 288 285 289 291 293 295
287 289 291 294 296 298 301 302 303 304 305 307 307 308 309 311 313 315 317 318 320 323 324 325 326 327 328 329 330 331 332 332 328 326 324 320 309 298 297 299 298 299 301 307
Height
5787 5784 5780 5777 5777 5773 5768 5764 5758 5755 5750 5747 5741 5736 5733 5728 5724 5719 5715 5710 5705 5700 5695 5689 5684 5677 5671 5665 5657 5650 5643 5636 5628 5619 5611 5602 5593 5584 5575 5566 5556 5546 5536 5525
5778 5776 5771 5768 5769 5765 5759 5755 5749 5744 5741 5737 5730 5725 5721 5716 5711 5707 5702 5697 5692 5687 5682 5676 5670 5664 5657 5651 5643 5636 5629 5621 5613 5604 5596 5588 5579 5570 5561 5552 5543 5533 5523 5513
5765 5764 5760 5760 5760 5755 5750 5745 5740 5734 5731 5725 5720 5715 5710 5705 5700 5695 5690 5685 5680 5674 5669 5663 5656 5649 5642 5636 5628 5621 5614 5606 5597 5589 5581 5573 5564 5556 5547 5538 5530 5520 5511 5501
5753 5752 5748 5753 5748 5743 5737 5735 5729 5722 5717 5712 5708 5704 5699 5693 5687 5682 5677 5672 5666 5660 5654 5648 5641 5633 5627 5621 5613 5605 5598 5590 5582 5574 5566 5558 5550 5542 5534 5525 5517 5508 5499 5490
5742 5737 5734 5738 5736 5729 5723 5721 5716 5708 5703 5698 5694 5691 5688 5681 5675 5669 5664 5658 5652 5645 5639 5633 5626 5618 5612 5605 5597 5590 5582 5574 5567 5559 5551 5543 5536 5528 5520 5512 5505 5496 5488 5479
5733 5726 5722 5727 5721 5714 5710 5706 5701 5693 5688 5683 5679 5675 5674 5670 5663 5657 5651 5644 5637 5631 5624 5617 5610 5602 5596 5589 5582 5575 5567 5560 5552 5545 5537 5530 5523 5515 5508 5500 5492 5485 5477 5468
5721 5714 5711 5714 5707 5701 5697 5693 5687 5680 5674 5670 5664 5660 5656 5652 5647 5641 5635 5628 5622 5615 5609 5602 5594 5587 5581 5574 5567 5560 5553 5546 5539 5531 5524 5517 5510 5503 5496 5488 5481 5474 5466 5457
5709 5703 5703 5700 5694 5689 5683 5678 5672 5666 5661 5655 5651 5646 5641 5636 5631 5625 5619 5613 5606 5600 5594 5587 5579 5572 5567 5560 5553 5546 5540 5533 5526 5519 5511 5504 5497 5490 5483 5476 5469 5462 5454 5446
5697 5695 5692 5686 5679 5674 5668 5662 5657 5652 5647 5642 5636 5632 5627 5622 5616 5610 5604 5598 5591 5585 5580 5573 5565 5558 5552 5546 5539 5533 5526 5520 5513 5506 5499 5492 5485 5478 5471 5465 5458 5451 5443 5436
5684 5682 5678 5672 5666 5660 5654 5648 5643 5638 5633 5628 5622 5618 5613 5607 5602 5596 5590 5583 5577 5571 5566 5560 5553 5545 5538 5532 5526 5520 5513 5507 5500 5493 5486 5480 5473 5466 5459 5453 5446 5440 5433 5426
5672 5670 5665 5661 5654 5648 5642 5637 5631 5626 5621 5615 5610 5605 5600 5594 5588 5582 5576 5570 5564 5558 5552 5546 5540 5533 5525 5518 5513 5506 5499 5493 5486 5479 5473 5466 5459 5453 5447 5441 5435 5429 5423 5416
5660 5656 5650 5647 5641 5635 5630 5625 5620 5614 5609 5604 5598 5593 5588 5582 5576 5570 5564 5558 5552 5546 5539 5533 5526 5519 5512 5505 5499 5492 5485 5478 5472 5465 5458 5452 5446 5440 5434 5429 5423 5417 5412 5406
5648 5643 5638 5634 5629 5623 5618 5613 5608 5602 5597 5592 5587 5581 5576 5570 5564 5557 5551 5544 5538 5532 5526 5519 5513 5506 5498 5492 5484 5477 5470 5464 5457 5450 5444 5438 5432 5426 5421 5416 5411 5406 5401 5395
5635 5631 5627 5622 5617 5612 5606 5601 5596 5591 5586 5580 5575 5569 5563 5557 5551 5544 5538 5532 5525 5519 5512 5505 5499 5492 5484 5477 5470 5463 5456 5448 5442 5435 5429 5423 5417 5412 5407 5403 5399 5395 5390 5385
5623 5618 5614 5609 5604 5599 5594 5589 5584 5579 5573 5568 5562 5556 5551 5545 5539 5533 5526 5519 5513 5506 5498 5492 5485 5478 5470 5463 5455 5448 5440 5432 5425 5418 5412 5406 5401 5396 5392 5389 5387 5383 5379 5375
5610 5605 5601 5597 5592 5587 5582 5577 5572 5567 5561 5556 5551 5545 5539 5533 5527 5520 5513 5506 5499 5493 5485 5478 5471 5463 5455 5447 5439 5431 5423 5415 5407 5401 5394 5389 5384 5380 5377 5375 5374 5371 5369 5365
5597 5592 5588 5584 5579 5574 5569 5564 5559 5554 5549 5544 5539 5533 5527 5521 5515 5508 5501 5494 5486 5479 5471 5464 5457 5449 5440 5431 5423 5414 5406 5397 5389 5382 5377 5371 5367 5365 5363 5362 5361 5360 5358 5355
5582 5579 5575 5571 5566 5562 5558 5553 5547 5543 5538 5533 5527 5522 5515 5509 5503 5496 5490 5482 5474 5467 5458 5450 5442 5434 5425 5416 5407 5397 5388 5379 5371 5364 5360 5355 5352 5350 5349 5349 5349 5349 5347 5345
5568 5565 5562 5557 5553 5549 5545 5541 5536 5531 5526 5521 5516 5510 5503 5496 5490 5483 5476 5469 5461 5455 5448 5438 5429 5420 5411 5402 5392 5382 5372 5363 5356 5350 5345 5341 5339 5338 5337 5337 5338 5337 5337 5336
5555 5552 5548 5544 5540 5536 5532 5528 5524 5519 5514 5509 5503 5498 5491 5485 5477 5471 5464 5457 5448 5440 5434 5425 5416 5407 5398 5388 5378 5368 5358 5349 5342 5336 5332 5329 5327 5326 5326 5326 5327 5327 5327 5327
5541 5538 5534 5531 5527 5524 5519 5515 5511 5507 5502 5496 5491 5485 5479 5473 5466 5459 5452 5446 5438 5428 5421 5412 5403 5394 5385 5375 5365 5355 5345 5337 5331 5325 5320 5318 5316 5316 5316 5317 5317 5318 5319 5319
5527 5524 5521 5517 5514 5511 5507 5502 5498 5494 5490 5484 5478 5472 5467 5462 5455 5448 5440 5432 5426 5417 5409 5400 5391 5382 5372 5363 5353 5344 5335 5328 5321 5316 5311 5308 5307 5307 5307 5308 5309 5310 5311 5311
5513 5510 5507 5504 5501 5498 5495 5490 5486 5481 5477 5472 5466 5460 5455 5449 5442 5436 5430 5422 5414 5406 5397 5389 5380 5371 5362 5353 5343 5334 5326 5319 5313 5308 5305 5302 5300 5300 5300 5301 5303 5304 5305 5305
5500 5497 5494 5491 5488 5486 5483 5479 5474 5469 5464 5459 5453 5447 5442 5437 5432 5424 5417 5410 5403 5395 5387 5379 5371 5362 5353 5344 5336 5327 5320 5313 5307 5303 5300 5297 5295 5295 5295 5296 5297 5299 5300 5300
5487 5484 5482 5479 5476 5473 5470 5466 5462 5458 5453 5448 5442 5436 5430 5425 5420 5414 5407 5400 5393 5386 5379 5371 5363 5355 5346 5338 5330 5323 5316 5309 5304 5299 5296 5294 5292 5291 5292 5293 5294 5295 5295 5295
5474 5471 5469 5466 5463 5460 5457 5454 5450 5446 5441 5437 5432 5426 5421 5415 5409 5403 5397 5391 5384 5377 5370 5363 5356 5348 5341 5333 5326 5319 5312 5306 5301 5297 5294 5292 5290 5290 5290 5291 5292 5292 5292 5292
5460 5458 5456 5453 5451 5447 5444 5441 5437 5434 5429 5425 5421 5417 5411 5406 5400 5394 5388 5382 5376 5370 5363 5356 5349 5342 5335 5328 5322 5315 5309 5304 5299 5295 5292 5290 5290 5290 5290 5290 5290 5290 5290 5290